Time,TemperatureF,DewpointF,PressureIn,WindDirection,WindDirectionDegrees,WindSpeedMPH,WindSpeedGustMPH,Humidity,HourlyPrecipIn,Conditions,Clouds,dailyrainin,SoftwareType,DateUTC
2013-04-23 00:04:00,51.6,35.9,30.22,SE,135,0.0,0.0,55,0.00,,,0.00,WUHU21623XXSP,2013-04-23 04:04:00,
2013-04-23 00:09:00,51.6,35.9,30.22,SE,135,0.0,0.0,55,0.00,,,0.00,WUHU21623XXSP,2013-04-23 04:09:00,
2013-04-23 00:14:00,51.6,35.9,30.22,SE,135,0.0,0.0,55,0.00,,,0.00,WUHU21623XXSP,2013-04-23 04:14:00,
2013-04-23 00:19:00,51.6,35.9,30.22,SE,135,0.0,0.0,55,0.00,,,0.00,WUHU21623XXSP,2013-04-23 04:19:00,
2013-04-23 00:24:00,51.6,35.9,30.22,SE,135,0.0,0.0,55,0.00,,,0.00,WUHU21623XXSP,2013-04-23 04:24:00,
2013-04-23 00:29:00,51.4,35.7,30.22,SE,135,0.0,0.0,55,0.00,,,0.00,WUHU21623XXSP,2013-04-23 04:29:00,
2013-04-23 00:34:00,51.4,36.2,30.22,SE,135,0.0,0.0,56,0.00,,,0.00,WUHU21623XXSP,2013-04-23 04:34:00,
2013-04-23 00:39:00,51.3,36.0,30.22,SE,135,0.0,0.0,56,0.00,,,0.00,WUHU21623XXSP,2013-04-23 04:39:00,
2013-04-23 00:45:00,51.1,35.9,30.22,SE,135,0.0,0.0,56,0.00,,,0.00,WUHU21623XXSP,2013-04-23 04:45:00,
2013-04-23 00:50:00,50.9,35.7,30.22,SE,135,0.0,0.0,56,0.00,,,0.00,WUHU21623XXSP,2013-04-23 04:50:00,
2013-04-23 00:55:00,50.7,35.5,30.22,SE,135,0.0,0.0,56,0.00,,,0.00,WUHU21623XXSP,2013-04-23 04:55:00,
2013-04-23 01:00:00,50.7,36.0,30.21,SE,135,0.0,0.0,57,0.00,,,0.00,WUHU21623XXSP,2013-04-23 05:00:00,
2013-04-23 01:05:00,50.7,36.0,30.21,SE,135,0.0,0.0,57,0.00,,,0.00,WUHU21623XXSP,2013-04-23 05:05:00,
2013-04-23 01:16:00,50.5,35.4,30.22,SE,135,0.0,0.0,56,0.00,,,0.00,WUHU21623XXSP,2013-04-23 05:16:00,
2013-04-23 01:21:00,50.5,35.4,30.21,SE,135,0.0,0.0,56,0.00,,,0.00,WUHU21623XXSP,2013-04-23 05:21:00,
2013-04-23 01:26:00,50.5,35.4,30.21,SE,135,0.0,0.0,56,0.00,,,0.00,WUHU21623XXSP,2013-04-23 05:26:00,
2013-04-23 01:31:00,50.4,35.2,30.21,SE,135,0.0,0.0,56,0.00,,,0.00,WUHU21623XXSP,2013-04-23 05:31:00,
2013-04-23 01:36:00,50.2,35.0,30.22,SE,135,0.0,0.0,56,0.00,,,0.00,WUHU21623XXSP,2013-04-23 05:36:00,
2013-04-23 01:41:00,50.2,35.0,30.22,SE,135,0.0,0.0,56,0.00,,,0.00,WUHU21623XXSP,2013-04-23 05:41:00,
2013-04-23 01:46:00,50.0,34.9,30.21,SE,135,0.0,0.0,56,0.00,,,0.00,WUHU21623XXSP,2013-04-23 05:46:00,
2013-04-23 01:51:00,49.8,34.7,30.22,SE,135,0.0,0.0,56,0.00,,,0.00,WUHU21623XXSP,2013-04-23 05:51:00,
2013-04-23 01:56:00,49.8,34.7,30.21,SE,135,0.0,0.0,56,0.00,,,0.00,WUHU21623XXSP,2013-04-23 05:56:00,
2013-04-23 02:01:00,49.6,34.5,30.21,SE,135,0.0,0.0,56,0.00,,,0.00,WUHU21623XXSP,2013-04-23 06:01:00,
2013-04-23 02:15:00,49.6,34.5,30.21,SE,135,0.0,0.0,56,0.00,,,0.00,WUHU21623XXSP,2013-04-23 06:15:00,
2013-04-23 02:20:00,49.6,34.5,30.21,SE,135,0.0,0.0,56,0.00,,,0.00,WUHU21623XXSP,2013-04-23 06:20:00,
2013-04-23 02:25:00,49.6,34.5,30.21,SE,135,0.0,0.0,56,0.00,,,0.00,WUHU21623XXSP,2013-04-23 06:25:00,
2013-04-23 02:30:00,49.6,34.5,30.21,SE,135,0.0,0.0,56,0.00,,,0.00,WUHU21623XXSP,2013-04-23 06:30:00,
2013-04-23 02:36:00,49.3,34.2,30.21,SE,135,0.0,0.0,56,0.00,,,0.00,WUHU21623XXSP,2013-04-23 06:36:00,
2013-04-23 02:41:00,49.3,34.2,30.20,SE,135,0.0,0.0,56,0.00,,,0.00,WUHU21623XXSP,2013-04-23 06:41:00,
2013-04-23 02:46:00,49.3,34.2,30.20,SE,135,0.0,0.0,56,0.00,,,0.00,WUHU21623XXSP,2013-04-23 06:46:00,
2013-04-23 02:51:00,49.1,34.0,30.20,SE,135,0.0,0.0,56,0.00,,,0.00,WUHU21623XXSP,2013-04-23 06:51:00,
2013-04-23 02:56:00,49.1,34.0,30.20,SE,135,0.0,0.0,56,0.00,,,0.00,WUHU21623XXSP,2013-04-23 06:56:00,
2013-04-23 03:01:00,48.9,33.9,30.20,SE,135,0.0,0.0,56,0.00,,,0.00,WUHU21623XXSP,2013-04-23 07:01:00,
2013-04-23 03:06:00,48.9,33.9,30.20,SE,135,0.0,0.0,56,0.00,,,0.00,WUHU21623XXSP,2013-04-23 07:06:00,
2013-04-23 03:11:00,48.6,34.0,30.20,SE,135,0.0,0.0,57,0.00,,,0.00,WUHU21623XXSP,2013-04-23 07:11:00,
2013-04-23 03:16:00,48.4,34.0,30.20,SE,135,0.0,0.0,57,0.00,,,0.00,WUHU21623XXSP,2013-04-23 07:16:00,
2013-04-23 03:21:00,48.0,33.9,30.20,SE,135,0.0,0.0,58,0.00,,,0.00,WUHU21623XXSP,2013-04-23 07:21:00,
2013-04-23 03:26:00,47.8,33.8,30.20,SE,135,0.0,0.0,58,0.00,,,0.00,WUHU21623XXSP,2013-04-23 07:26:00,
2013-04-23 03:31:00,47.3,33.9,30.20,SE,135,0.0,0.0,60,0.00,,,0.00,WUHU21623XXSP,2013-04-23 07:31:00,
2013-04-23 03:36:00,46.9,34.6,30.20,SE,135,0.0,0.0,62,0.00,,,0.00,WUHU21623XXSP,2013-04-23 07:36:00,
2013-04-23 03:41:00,46.8,34.0,30.20,SE,135,0.0,0.0,61,0.00,,,0.00,WUHU21623XXSP,2013-04-23 07:41:00,
2013-04-23 03:46:00,46.2,33.9,30.19,SE,135,0.0,0.0,62,0.00,,,0.00,WUHU21623XXSP,2013-04-23 07:46:00,
2013-04-23 03:51:00,46.0,33.7,30.20,SE,135,0.0,0.0,62,0.00,,,0.00,WUHU21623XXSP,2013-04-23 07:51:00,
2013-04-23 03:56:00,45.7,33.8,30.20,SE,135,0.0,0.0,63,0.00,,,0.00,WUHU21623XXSP,2013-04-23 07:56:00,
2013-04-23 04:01:00,45.3,34.0,30.20,SE,135,0.0,0.0,64,0.00,,,0.00,WUHU21623XXSP,2013-04-23 08:01:00,
2013-04-23 04:06:00,45.3,33.8,30.19,SE,135,0.0,0.0,64,0.00,,,0.00,WUHU21623XXSP,2013-04-23 08:06:00,
2013-04-23 04:11:00,45.1,33.7,30.19,SE,135,0.0,0.0,64,0.00,,,0.00,WUHU21623XXSP,2013-04-23 08:11:00,
2013-04-23 04:16:00,45.0,33.5,30.19,SE,135,0.0,0.0,64,0.00,,,0.00,WUHU21623XXSP,2013-04-23 08:16:00,
2013-04-23 04:21:00,44.6,33.2,30.19,SE,135,0.0,0.0,64,0.00,,,0.00,WUHU21623XXSP,2013-04-23 08:21:00,
2013-04-23 04:26:00,44.6,33.5,30.19,SE,135,0.0,0.0,65,0.00,,,0.00,WUHU21623XXSP,2013-04-23 08:26:00,
2013-04-23 04:31:00,44.2,33.4,30.19,SE,135,0.0,0.0,65,0.00,,,0.00,WUHU21623XXSP,2013-04-23 08:31:00,
2013-04-23 04:36:00,43.9,32.8,30.19,SE,135,0.0,0.0,65,0.00,,,0.00,WUHU21623XXSP,2013-04-23 08:36:00,
2013-04-23 04:41:00,43.7,32.8,30.19,SE,135,0.0,0.0,66,0.00,,,0.00,WUHU21623XXSP,2013-04-23 08:41:00,
2013-04-23 04:46:00,43.3,32.7,30.19,SE,135,0.0,0.0,66,0.00,,,0.00,WUHU21623XXSP,2013-04-23 08:46:00,
2013-04-23 04:51:00,43.2,32.5,30.19,SE,135,0.0,0.0,66,0.00,,,0.00,WUHU21623XXSP,2013-04-23 08:51:00,
2013-04-23 04:56:00,43.0,32.5,30.19,SE,135,0.0,0.0,66,0.00,,,0.00,WUHU21623XXSP,2013-04-23 08:56:00,
2013-04-23 05:01:00,43.0,32.8,30.19,SE,135,0.0,0.0,67,0.00,,,0.00,WUHU21623XXSP,2013-04-23 09:01:00,
2013-04-23 05:06:00,42.6,32.4,30.19,SE,135,0.0,0.0,67,0.00,,,0.00,WUHU21623XXSP,2013-04-23 09:06:00,
2013-04-23 05:11:00,42.6,32.8,30.19,SE,135,0.0,0.0,68,0.00,,,0.00,WUHU21623XXSP,2013-04-23 09:11:00,
2013-04-23 05:17:00,42.4,32.6,30.19,SE,135,0.0,0.0,68,0.00,,,0.00,WUHU21623XXSP,2013-04-23 09:17:00,
2013-04-23 05:22:00,42.1,32.7,30.19,SE,135,0.0,0.0,69,0.00,,,0.00,WUHU21623XXSP,2013-04-23 09:22:00,
2013-04-23 05:27:00,42.1,32.7,30.19,SE,135,0.0,0.0,69,0.00,,,0.00,WUHU21623XXSP,2013-04-23 09:27:00,
2013-04-23 05:32:00,41.9,32.5,30.19,SE,135,0.0,0.0,69,0.00,,,0.00,WUHU21623XXSP,2013-04-23 09:32:00,
2013-04-23 05:37:00,41.7,32.3,30.19,SE,135,0.0,0.0,69,0.00,,,0.00,WUHU21623XXSP,2013-04-23 09:37:00,
2013-04-23 05:42:00,41.5,32.7,30.19,SE,135,0.0,0.0,70,0.00,,,0.00,WUHU21623XXSP,2013-04-23 09:42:00,
2013-04-23 05:47:00,41.5,32.5,30.19,SE,135,0.0,0.0,70,0.00,,,0.00,WUHU21623XXSP,2013-04-23 09:47:00,
2013-04-23 05:52:00,41.4,32.5,30.19,SE,135,0.0,0.0,70,0.00,,,0.00,WUHU21623XXSP,2013-04-23 09:52:00,
2013-04-23 05:57:00,41.4,32.7,30.19,SE,135,0.0,0.0,71,0.00,,,0.00,WUHU21623XXSP,2013-04-23 09:57:00,
2013-04-23 06:02:00,41.4,32.7,30.19,SE,135,0.0,0.0,71,0.00,,,0.00,WUHU21623XXSP,2013-04-23 10:02:00,
2013-04-23 06:07:00,41.4,32.7,30.19,SE,135,0.0,0.0,71,0.00,,,0.00,WUHU21623XXSP,2013-04-23 10:07:00,
2013-04-23 06:12:00,41.2,32.8,30.19,SE,135,0.0,0.0,72,0.00,,,0.00,WUHU21623XXSP,2013-04-23 10:12:00,
2013-04-23 06:17:00,41.2,32.8,30.19,SE,135,0.0,0.0,72,0.00,,,0.00,WUHU21623XXSP,2013-04-23 10:17:00,
2013-04-23 06:22:00,41.2,32.8,30.19,SE,135,0.0,0.0,72,0.00,,,0.00,WUHU21623XXSP,2013-04-23 10:22:00,
2013-04-23 06:27:00,40.8,32.5,30.19,SE,135,0.0,0.0,72,0.00,,,0.00,WUHU21623XXSP,2013-04-23 10:27:00,
2013-04-23 06:32:00,40.8,32.5,30.19,SE,135,0.0,0.0,72,0.00,,,0.00,WUHU21623XXSP,2013-04-23 10:32:00,
2013-04-23 06:37:00,40.8,32.8,30.19,SE,135,0.0,0.0,73,0.00,,,0.00,WUHU21623XXSP,2013-04-23 10:37:00,
2013-04-23 06:42:00,40.6,32.6,30.18,SE,135,0.0,0.0,73,0.00,,,0.00,WUHU21623XXSP,2013-04-23 10:42:00,
2013-04-23 06:47:00,40.6,32.6,30.18,SE,135,0.0,0.0,73,0.00,,,0.00,WUHU21623XXSP,2013-04-23 10:47:00,
2013-04-23 06:52:00,40.6,32.6,30.19,SE,135,0.0,0.0,73,0.00,,,0.00,WUHU21623XXSP,2013-04-23 10:52:00,
2013-04-23 06:57:00,40.5,32.4,30.19,SE,135,0.0,0.0,73,0.00,,,0.00,WUHU21623XXSP,2013-04-23 10:57:00,
2013-04-23 07:02:00,40.3,32.6,30.20,SE,135,0.0,0.0,74,0.00,,,0.00,WUHU21623XXSP,2013-04-23 11:02:00,
2013-04-23 07:07:00,40.3,32.6,30.19,SE,135,0.0,0.0,74,0.00,,,0.00,WUHU21623XXSP,2013-04-23 11:07:00,
2013-04-23 07:12:00,40.3,32.6,30.20,SE,135,0.0,0.0,74,0.00,,,0.00,WUHU21623XXSP,2013-04-23 11:12:00,
2013-04-23 07:17:00,40.3,32.6,30.20,SE,135,0.0,0.0,74,0.00,,,0.00,WUHU21623XXSP,2013-04-23 11:17:00,
2013-04-23 07:22:00,40.3,32.6,30.19,SE,135,0.0,0.0,74,0.00,,,0.00,WUHU21623XXSP,2013-04-23 11:22:00,
2013-04-23 07:27:00,40.6,33.3,30.20,SE,135,0.0,0.0,75,0.00,,,0.00,WUHU21623XXSP,2013-04-23 11:27:00,
2013-04-23 07:32:00,40.6,33.3,30.20,SE,135,0.0,0.0,75,0.00,,,0.00,WUHU21623XXSP,2013-04-23 11:32:00,
2013-04-23 07:37:00,40.8,33.4,30.21,SE,135,0.0,0.0,75,0.00,,,0.00,WUHU21623XXSP,2013-04-23 11:37:00,
2013-04-23 07:42:00,41.0,33.6,30.21,SE,135,0.0,0.0,75,0.00,,,0.00,WUHU21623XXSP,2013-04-23 11:42:00,
2013-04-23 07:47:00,41.4,34.0,30.21,SE,135,0.0,0.0,75,0.00,,,0.00,WUHU21623XXSP,2013-04-23 11:47:00,
2013-04-23 07:52:00,41.5,34.5,30.20,SE,135,0.0,0.0,76,0.00,,,0.00,WUHU21623XXSP,2013-04-23 11:52:00,
2013-04-23 07:57:00,42.1,35.0,30.20,SE,135,0.0,0.0,76,0.00,,,0.00,WUHU21623XXSP,2013-04-23 11:57:00,
2013-04-23 08:02:00,42.4,35.7,30.20,SE,135,0.0,0.0,77,0.00,,,0.00,WUHU21623XXSP,2013-04-23 12:02:00,
2013-04-23 08:07:00,43.0,35.9,30.21,SE,135,0.0,0.0,76,0.00,,,0.00,WUHU21623XXSP,2013-04-23 12:07:00,
2013-04-23 08:12:00,43.3,36.2,30.20,SE,135,0.0,0.0,76,0.00,,,0.00,WUHU21623XXSP,2013-04-23 12:12:00,
2013-04-23 08:17:00,43.9,36.8,30.20,SE,135,0.0,0.0,76,0.00,,,0.00,WUHU21623XXSP,2013-04-23 12:17:00,
2013-04-23 08:22:00,44.4,37.3,30.21,SE,135,0.0,0.0,76,0.00,,,0.00,WUHU21623XXSP,2013-04-23 12:22:00,
2013-04-23 08:27:00,45.0,37.5,30.21,SE,135,0.0,0.0,75,0.00,,,0.00,WUHU21623XXSP,2013-04-23 12:27:00,
2013-04-23 08:32:00,45.3,37.9,30.21,SE,135,0.0,0.0,75,0.00,,,0.00,WUHU21623XXSP,2013-04-23 12:32:00,
2013-04-23 08:37:00,45.7,37.9,30.21,SE,135,0.0,0.0,74,0.00,,,0.00,WUHU21623XXSP,2013-04-23 12:37:00,
2013-04-23 08:42:00,46.6,38.4,30.21,SE,135,0.0,0.0,73,0.00,,,0.00,WUHU21623XXSP,2013-04-23 12:42:00,
2013-04-23 08:47:00,46.9,38.7,30.21,SE,135,0.0,0.0,73,0.00,,,0.00,WUHU21623XXSP,2013-04-23 12:47:00,
2013-04-23 08:52:00,47.5,38.9,30.21,SE,135,0.0,0.0,73,0.00,,,0.00,WUHU21623XXSP,2013-04-23 12:52:00,
2013-04-23 08:57:00,48.7,40.4,30.20,SE,135,0.0,0.0,73,0.00,,,0.00,WUHU21623XXSP,2013-04-23 12:57:00,
2013-04-23 09:02:00,49.3,40.3,30.21,SE,135,0.0,0.0,71,0.00,,,0.00,WUHU21623XXSP,2013-04-23 13:02:00,
2013-04-23 09:07:00,50.2,40.4,30.21,SE,135,0.0,0.0,69,0.00,,,0.00,WUHU21623XXSP,2013-04-23 13:07:00,
2013-04-23 09:12:00,50.7,40.6,30.21,SE,135,0.0,0.0,69,0.00,,,0.00,WUHU21623XXSP,2013-04-23 13:12:00,
2013-04-23 09:17:00,51.4,41.1,30.21,SE,135,0.0,0.0,69,0.00,,,0.00,WUHU21623XXSP,2013-04-23 13:17:00,
2013-04-23 09:22:00,52.3,41.3,30.21,SE,135,0.0,0.0,66,0.00,,,0.00,WUHU21623XXSP,2013-04-23 13:22:00,
2013-04-23 09:27:00,52.9,40.6,30.21,SE,135,0.0,0.0,63,0.00,,,0.00,WUHU21623XXSP,2013-04-23 13:27:00,
2013-04-23 09:32:00,53.4,40.7,30.21,SE,135,0.0,0.0,61,0.00,,,0.00,WUHU21623XXSP,2013-04-23 13:32:00,
2013-04-23 09:37:00,54.3,40.7,30.21,SE,135,0.0,0.0,60,0.00,,,0.00,WUHU21623XXSP,2013-04-23 13:37:00,
2013-04-23 09:42:00,54.9,40.3,30.21,SE,135,0.0,0.0,58,0.00,,,0.00,WUHU21623XXSP,2013-04-23 13:42:00,
2013-04-23 09:48:00,55.2,40.2,30.21,SE,135,0.0,0.0,57,0.00,,,0.00,WUHU21623XXSP,2013-04-23 13:48:00,
2013-04-23 09:53:00,56.1,41.0,30.21,SE,135,0.0,0.0,57,0.00,,,0.00,WUHU21623XXSP,2013-04-23 13:53:00,
2013-04-23 09:58:00,56.8,40.8,30.22,SE,135,0.0,0.0,55,0.00,,,0.00,WUHU21623XXSP,2013-04-23 13:58:00,
2013-04-23 10:03:00,57.4,40.9,30.22,SE,135,0.0,0.0,54,0.00,,,0.00,WUHU21623XXSP,2013-04-23 14:03:00,
2013-04-23 10:08:00,58.5,41.8,30.22,SE,135,0.0,0.0,54,0.00,,,0.00,WUHU21623XXSP,2013-04-23 14:08:00,
2013-04-23 10:13:00,59.0,41.9,30.22,SE,135,0.0,0.0,53,0.00,,,0.00,WUHU21623XXSP,2013-04-23 14:13:00,
2013-04-23 10:18:00,59.9,41.7,30.22,SE,135,0.0,0.0,51,0.00,,,0.00,WUHU21623XXSP,2013-04-23 14:18:00,
2013-04-23 10:23:00,61.0,41.7,30.22,SE,135,0.0,0.0,49,0.00,,,0.00,WUHU21623XXSP,2013-04-23 14:23:00,
2013-04-23 10:28:00,61.7,41.2,30.22,ESE,112,0.0,0.0,47,0.00,,,0.00,WUHU21623XXSP,2013-04-23 14:28:00,
2013-04-23 10:33:00,62.4,41.8,30.22,ESE,112,0.0,0.0,47,0.00,,,0.00,WUHU21623XXSP,2013-04-23 14:33:00,
2013-04-23 10:38:00,63.5,42.8,30.22,ESE,112,0.0,0.0,47,0.00,,,0.00,WUHU21623XXSP,2013-04-23 14:38:00,
2013-04-23 10:43:00,64.2,42.3,30.22,ESE,112,0.0,0.0,45,0.00,,,0.00,WUHU21623XXSP,2013-04-23 14:43:00,
2013-04-23 10:48:00,64.8,42.2,30.22,ESE,112,0.0,0.0,44,0.00,,,0.00,WUHU21623XXSP,2013-04-23 14:48:00,
2013-04-23 10:53:00,65.7,42.5,30.22,ESE,112,0.0,0.0,43,0.00,,,0.00,WUHU21623XXSP,2013-04-23 14:53:00,
2013-04-23 10:58:00,66.0,41.6,30.22,ENE,67,0.0,0.0,41,0.00,,,0.00,WUHU21623XXSP,2013-04-23 14:58:00,
2013-04-23 11:03:00,66.4,41.3,30.22,ENE,67,0.0,0.0,42,0.00,,,0.00,WUHU21623XXSP,2013-04-23 15:03:00,
2013-04-23 11:08:00,67.3,43.3,30.22,East,90,0.0,0.0,42,0.00,,,0.00,WUHU21623XXSP,2013-04-23 15:08:00,
2013-04-23 11:13:00,68.2,44.1,30.22,East,90,0.0,0.0,42,0.00,,,0.00,WUHU21623XXSP,2013-04-23 15:13:00,
2013-04-23 11:18:00,69.1,43.8,30.22,ENE,67,0.0,0.0,40,0.00,,,0.00,WUHU21623XXSP,2013-04-23 15:18:00,
2013-04-23 11:23:00,69.4,43.9,30.22,ENE,67,0.0,0.0,38,0.00,,,0.00,WUHU21623XXSP,2013-04-23 15:23:00,
2013-04-23 11:28:00,70.0,43.8,30.21,ENE,67,0.0,0.0,39,0.00,,,0.00,WUHU21623XXSP,2013-04-23 15:28:00,
2013-04-23 11:33:00,70.5,42.9,30.21,ENE,67,0.0,0.0,37,0.00,,,0.00,WUHU21623XXSP,2013-04-23 15:33:00,
2013-04-23 11:38:00,70.5,42.9,30.20,ENE,67,0.0,0.0,37,0.00,,,0.00,WUHU21623XXSP,2013-04-23 15:38:00,
2013-04-23 11:43:00,71.4,44.4,30.20,NE,45,0.0,0.0,38,0.00,,,0.00,WUHU21623XXSP,2013-04-23 15:43:00,
2013-04-23 11:48:00,72.0,43.4,30.20,NE,45,0.0,0.0,36,0.00,,,0.00,WUHU21623XXSP,2013-04-23 15:48:00,
2013-04-23 11:53:00,71.2,43.5,30.20,NE,45,0.0,0.0,37,0.00,,,0.00,WUHU21623XXSP,2013-04-23 15:53:00,
2013-04-23 11:58:00,70.9,43.2,30.20,NE,45,0.0,0.0,37,0.00,,,0.00,WUHU21623XXSP,2013-04-23 15:58:00,
2013-04-23 12:03:00,71.8,44.4,30.20,NE,45,0.0,0.0,38,0.00,,,0.00,WUHU21623XXSP,2013-04-23 16:03:00,
2013-04-23 12:08:00,72.5,44.6,30.19,NE,45,0.0,0.0,37,0.00,,,0.00,WUHU21623XXSP,2013-04-23 16:08:00,
2013-04-23 12:13:00,73.2,46.0,30.19,NE,45,0.0,0.0,38,0.00,,,0.00,WUHU21623XXSP,2013-04-23 16:13:00,
2013-04-23 12:18:00,74.1,46.0,30.19,NE,45,0.0,0.0,37,0.00,,,0.00,WUHU21623XXSP,2013-04-23 16:18:00,
2013-04-23 12:23:00,74.5,47.1,30.19,WNW,292,0.0,0.0,38,0.00,,,0.00,WUHU21623XXSP,2013-04-23 16:23:00,
2013-04-23 12:28:00,75.4,47.2,30.18,NW,315,0.0,0.0,37,0.00,,,0.00,WUHU21623XXSP,2013-04-23 16:28:00,
2013-04-23 12:33:00,76.3,47.2,30.18,WNW,292,0.0,0.0,36,0.00,,,0.00,WUHU21623XXSP,2013-04-23 16:33:00,
2013-04-23 12:38:00,76.6,47.6,30.18,WNW,292,0.0,0.0,36,0.00,,,0.00,WUHU21623XXSP,2013-04-23 16:38:00,
2013-04-23 12:43:00,76.6,47.6,30.18,NE,45,4.7,4.7,36,0.00,,,0.00,WUHU21623XXSP,2013-04-23 16:43:00,
2013-04-23 12:49:00,76.5,47.4,30.18,NE,45,0.0,4.7,36,0.00,,,0.00,WUHU21623XXSP,2013-04-23 16:49:00,
2013-04-23 12:54:00,76.6,47.6,30.17,NE,45,0.0,0.0,36,0.00,,,0.00,WUHU21623XXSP,2013-04-23 16:54:00,
2013-04-23 12:59:00,76.6,47.6,30.17,North,0,0.0,0.0,36,0.00,,,0.00,WUHU21623XXSP,2013-04-23 16:59:00,
2013-04-23 13:04:00,76.8,47.6,30.17,North,0,0.0,0.0,36,0.00,,,0.00,WUHU21623XXSP,2013-04-23 17:04:00,
2013-04-23 13:09:00,77.0,48.6,30.16,NNW,337,0.0,0.0,37,0.00,,,0.00,WUHU21623XXSP,2013-04-23 17:09:00,
2013-04-23 13:14:00,77.5,48.3,30.16,West,270,0.0,0.0,36,0.00,,,0.00,WUHU21623XXSP,2013-04-23 17:14:00,
2013-04-23 13:19:00,77.7,49.2,30.16,West,270,0.0,0.0,37,0.00,,,0.00,WUHU21623XXSP,2013-04-23 17:19:00,
2013-04-23 13:24:00,78.1,48.8,30.16,West,270,0.0,0.0,36,0.00,,,0.00,WUHU21623XXSP,2013-04-23 17:24:00,
2013-04-23 13:29:00,78.8,49.4,30.16,West,270,0.0,0.0,36,0.00,,,0.00,WUHU21623XXSP,2013-04-23 17:29:00,
2013-04-23 13:34:00,78.8,49.4,30.15,WSW,247,0.0,0.0,36,0.00,,,0.00,WUHU21623XXSP,2013-04-23 17:34:00,
2013-04-23 13:39:00,79.2,49.7,30.15,West,270,2.5,2.5,36,0.00,,,0.00,WUHU21623XXSP,2013-04-23 17:39:00,
2013-04-23 13:44:00,79.3,49.1,30.15,SW,225,0.0,2.5,35,0.00,,,0.00,WUHU21623XXSP,2013-04-23 17:44:00,
2013-04-23 13:49:00,79.5,49.3,30.15,West,270,0.0,1.3,35,0.00,,,0.00,WUHU21623XXSP,2013-04-23 17:49:00,
2013-04-23 13:54:00,79.7,50.2,30.15,SSE,157,0.0,0.0,36,0.00,,,0.00,WUHU21623XXSP,2013-04-23 17:54:00,
2013-04-23 13:59:00,80.6,50.3,30.14,SSE,157,0.0,0.0,35,0.00,,,0.00,WUHU21623XXSP,2013-04-23 17:59:00,
2013-04-23 14:04:00,80.8,49.6,30.14,ENE,67,0.0,0.0,35,0.00,,,0.00,WUHU21623XXSP,2013-04-23 18:04:00,
2013-04-23 14:09:00,80.6,49.5,30.14,ENE,67,0.0,0.0,34,0.00,,,0.00,WUHU21623XXSP,2013-04-23 18:09:00,
2013-04-23 14:14:00,80.4,49.3,30.14,NE,45,0.0,2.5,34,0.00,,,0.00,WUHU21623XXSP,2013-04-23 18:14:00,
2013-04-23 14:19:00,80.8,50.3,30.14,SE,135,0.9,0.9,34,0.00,,,0.00,WUHU21623XXSP,2013-04-23 18:19:00,
2013-04-23 14:24:00,80.4,50.1,30.13,WSW,247,0.0,0.9,35,0.00,,,0.00,WUHU21623XXSP,2013-04-23 18:24:00,
2013-04-23 14:29:00,80.8,49.6,30.13,WSW,247,0.0,0.9,34,0.00,,,0.00,WUHU21623XXSP,2013-04-23 18:29:00,
2013-04-23 14:34:00,80.8,49.8,30.13,WSW,247,0.0,0.0,34,0.00,,,0.00,WUHU21623XXSP,2013-04-23 18:34:00,
2013-04-23 14:39:00,81.3,50.7,30.13,South,180,0.0,0.0,34,0.00,,,0.00,WUHU21623XXSP,2013-04-23 18:39:00,
2013-04-23 14:44:00,81.7,50.4,30.12,WSW,247,0.0,0.0,34,0.00,,,0.00,WUHU21623XXSP,2013-04-23 18:44:00,
2013-04-23 14:49:00,82.0,50.7,30.12,NE,45,0.0,0.0,34,0.00,,,0.00,WUHU21623XXSP,2013-04-23 18:49:00,
2013-04-23 14:54:00,82.0,49.9,30.12,ENE,67,0.0,0.0,33,0.00,,,0.00,WUHU21623XXSP,2013-04-23 18:54:00,
2013-04-23 14:59:00,82.2,50.1,30.12,WSW,247,0.0,0.0,33,0.00,,,0.00,WUHU21623XXSP,2013-04-23 18:59:00,
2013-04-23 15:04:00,82.6,50.4,30.12,WSW,247,0.0,0.0,33,0.00,,,0.00,WUHU21623XXSP,2013-04-23 19:04:00,
2013-04-23 15:09:00,82.8,50.5,30.12,WSW,247,0.0,0.0,33,0.00,,,0.00,WUHU21623XXSP,2013-04-23 19:09:00,
2013-04-23 15:14:00,82.9,50.5,30.12,SSE,157,0.0,0.0,33,0.00,,,0.00,WUHU21623XXSP,2013-04-23 19:14:00,
2013-04-23 15:19:00,82.9,50.7,30.12,SSE,157,0.0,0.0,33,0.00,,,0.00,WUHU21623XXSP,2013-04-23 19:19:00,
2013-04-23 15:24:00,83.3,49.4,30.11,SSE,157,0.0,0.0,31,0.00,,,0.00,WUHU21623XXSP,2013-04-23 19:24:00,
2013-04-23 15:29:00,83.1,48.5,30.11,NE,45,0.7,0.7,30,0.00,,,0.00,WUHU21623XXSP,2013-04-23 19:29:00,
2013-04-23 15:34:00,82.6,48.3,30.11,NE,45,0.0,0.7,32,0.00,,,0.00,WUHU21623XXSP,2013-04-23 19:34:00,
2013-04-23 15:39:00,82.2,50.4,30.11,WSW,247,1.6,1.6,33,0.00,,,0.00,WUHU21623XXSP,2013-04-23 19:39:00,
2013-04-23 15:44:00,82.2,50.1,30.11,South,180,0.0,2.0,33,0.00,,,0.00,WUHU21623XXSP,2013-04-23 19:44:00,
2013-04-23 15:49:00,82.2,50.8,30.10,South,180,0.0,2.0,33,0.00,,,0.00,WUHU21623XXSP,2013-04-23 19:49:00,
2013-04-23 15:54:00,82.2,50.1,30.10,SSW,202,0.0,0.0,31,0.00,,,0.00,WUHU21623XXSP,2013-04-23 19:54:00,
2013-04-23 15:59:00,82.2,50.1,30.10,SSE,157,0.0,0.0,33,0.00,,,0.00,WUHU21623XXSP,2013-04-23 19:59:00,
2013-04-23 16:04:00,82.4,50.2,30.10,WSW,247,0.0,0.0,33,0.00,,,0.00,WUHU21623XXSP,2013-04-23 20:04:00,
2013-04-23 16:09:00,82.4,50.2,30.09,WSW,247,0.0,0.0,33,0.00,,,0.00,WUHU21623XXSP,2013-04-23 20:09:00,
2013-04-23 16:14:00,82.6,50.4,30.09,SSE,157,0.0,0.0,33,0.00,,,0.00,WUHU21623XXSP,2013-04-23 20:14:00,
2013-04-23 16:19:00,82.6,50.4,30.09,SSE,157,1.3,1.3,33,0.00,,,0.00,WUHU21623XXSP,2013-04-23 20:19:00,
2013-04-23 16:24:00,82.6,50.4,30.09,South,180,0.7,1.3,33,0.00,,,0.00,WUHU21623XXSP,2013-04-23 20:24:00,
2013-04-23 16:29:00,82.2,50.2,30.09,South,180,0.0,0.7,32,0.00,,,0.00,WUHU21623XXSP,2013-04-23 20:29:00,
2013-04-23 16:34:00,81.7,49.9,30.09,South,180,0.0,0.0,33,0.00,,,0.00,WUHU21623XXSP,2013-04-23 20:34:00,
2013-04-23 16:39:00,81.7,49.6,30.09,NW,315,0.0,0.0,33,0.00,,,0.00,WUHU21623XXSP,2013-04-23 20:39:00,
2013-04-23 16:44:00,81.3,47.9,30.09,NE,45,1.1,1.1,31,0.00,,,0.00,WUHU21623XXSP,2013-04-23 20:44:00,
2013-04-23 16:49:00,81.1,48.4,30.08,ESE,112,0.0,1.1,32,0.00,,,0.00,WUHU21623XXSP,2013-04-23 20:49:00,
2013-04-23 16:54:00,81.1,48.4,30.08,SE,135,0.0,0.0,32,0.00,,,0.00,WUHU21623XXSP,2013-04-23 20:54:00,
2013-04-23 16:59:00,81.1,48.4,30.08,ESE,112,0.0,0.0,32,0.00,,,0.00,WUHU21623XXSP,2013-04-23 20:59:00,
2013-04-23 17:04:00,81.0,47.6,30.08,ESE,112,0.0,0.0,31,0.00,,,0.00,WUHU21623XXSP,2013-04-23 21:04:00,
2013-04-23 17:10:00,81.0,48.2,30.08,WSW,247,0.0,0.0,32,0.00,,,0.00,WUHU21623XXSP,2013-04-23 21:10:00,
2013-04-23 17:15:00,80.8,48.1,30.08,South,180,0.0,0.0,32,0.00,,,0.00,WUHU21623XXSP,2013-04-23 21:15:00,
2013-04-23 17:20:00,80.8,48.1,30.08,WSW,247,0.0,0.0,32,0.00,,,0.00,WUHU21623XXSP,2013-04-23 21:20:00,
2013-04-23 17:25:00,80.6,47.9,30.08,WSW,247,0.0,0.0,32,0.00,,,0.00,WUHU21623XXSP,2013-04-23 21:25:00,
2013-04-23 17:30:00,80.4,47.8,30.07,WSW,247,0.0,0.0,32,0.00,,,0.00,WUHU21623XXSP,2013-04-23 21:30:00,
2013-04-23 17:35:00,80.8,48.1,30.08,WSW,247,0.0,0.0,32,0.00,,,0.00,WUHU21623XXSP,2013-04-23 21:35:00,
2013-04-23 17:40:00,80.6,48.1,30.07,WSW,247,0.0,0.0,32,0.00,,,0.00,WUHU21623XXSP,2013-04-23 21:40:00,
2013-04-23 17:45:00,80.4,48.6,30.07,SSW,202,0.0,0.0,33,0.00,,,0.00,WUHU21623XXSP,2013-04-23 21:45:00,
2013-04-23 17:50:00,80.2,48.4,30.07,SSW,202,0.0,0.0,33,0.00,,,0.00,WUHU21623XXSP,2013-04-23 21:50:00,
2013-04-23 17:55:00,80.2,48.4,30.07,SSW,202,0.0,0.0,33,0.00,,,0.00,WUHU21623XXSP,2013-04-23 21:55:00,
2013-04-23 18:00:00,79.7,47.9,30.07,NNW,337,0.0,0.0,33,0.00,,,0.00,WUHU21623XXSP,2013-04-23 22:00:00,
2013-04-23 18:05:00,79.5,48.5,30.07,South,180,0.0,0.0,34,0.00,,,0.00,WUHU21623XXSP,2013-04-23 22:05:00,
2013-04-23 18:10:00,79.3,48.4,30.07,SSW,202,0.0,0.0,34,0.00,,,0.00,WUHU21623XXSP,2013-04-23 22:10:00,
2013-04-23 18:15:00,79.0,48.8,30.06,SSW,202,0.0,0.0,35,0.00,,,0.00,WUHU21623XXSP,2013-04-23 22:15:00,
2013-04-23 18:20:00,78.1,48.0,30.07,South,180,0.0,1.6,35,0.00,,,0.00,WUHU21623XXSP,2013-04-23 22:20:00,
2013-04-23 18:25:00,77.5,47.6,30.07,South,180,0.0,2.7,35,0.00,,,0.00,WUHU21623XXSP,2013-04-23 22:25:00,
2013-04-23 18:30:00,76.8,47.0,30.07,South,180,0.0,2.7,35,0.00,,,0.00,WUHU21623XXSP,2013-04-23 22:30:00,
2013-04-23 18:35:00,76.6,47.6,30.07,South,180,0.0,0.0,36,0.00,,,0.00,WUHU21623XXSP,2013-04-23 22:35:00,
2013-04-23 18:40:00,76.3,47.2,30.07,South,180,0.0,0.0,36,0.00,,,0.00,WUHU21623XXSP,2013-04-23 22:40:00,
2013-04-23 18:45:00,75.9,46.9,30.07,South,180,0.0,2.0,36,0.00,,,0.00,WUHU21623XXSP,2013-04-23 22:45:00,
2013-04-23 18:50:00,75.4,46.4,30.07,SSE,157,0.0,2.9,36,0.00,,,0.00,WUHU21623XXSP,2013-04-23 22:50:00,
2013-04-23 18:55:00,74.8,45.9,30.07,SSE,157,0.0,2.9,36,0.00,,,0.00,WUHU21623XXSP,2013-04-23 22:55:00,
2013-04-23 19:00:00,74.5,45.6,30.07,SSE,157,1.6,1.6,36,0.00,,,0.00,WUHU21623XXSP,2013-04-23 23:00:00,
2013-04-23 19:06:00,73.9,45.1,30.07,SSE,157,0.0,2.2,36,0.00,,,0.00,WUHU21623XXSP,2013-04-23 23:06:00,
2013-04-23 19:11:00,73.4,45.4,30.07,SSE,157,0.0,0.0,37,0.00,,,0.00,WUHU21623XXSP,2013-04-23 23:11:00,
2013-04-23 19:16:00,73.0,45.1,30.07,SSE,157,0.0,7.2,37,0.00,,,0.00,WUHU21623XXSP,2013-04-23 23:16:00,
2013-04-23 19:21:00,72.7,44.8,30.07,SSE,157,0.0,7.2,37,0.00,,,0.00,WUHU21623XXSP,2013-04-23 23:21:00,
2013-04-23 19:26:00,72.0,44.9,30.07,SSE,157,0.0,0.0,38,0.00,,,0.00,WUHU21623XXSP,2013-04-23 23:26:00,
2013-04-23 19:31:00,71.4,44.4,30.07,SSE,157,0.0,0.0,38,0.00,,,0.00,WUHU21623XXSP,2013-04-23 23:31:00,
2013-04-23 19:36:00,71.2,44.2,30.07,SSE,157,0.0,0.0,38,0.00,,,0.00,WUHU21623XXSP,2013-04-23 23:36:00,
2013-04-23 19:41:00,70.5,44.3,30.07,SSE,157,1.6,1.6,39,0.00,,,0.00,WUHU21623XXSP,2013-04-23 23:41:00,
2013-04-23 19:46:00,70.0,43.8,30.07,SSE,157,0.0,1.6,39,0.00,,,0.00,WUHU21623XXSP,2013-04-23 23:46:00,
2013-04-23 19:51:00,69.6,43.5,30.07,SSE,157,0.0,0.0,39,0.00,,,0.00,WUHU21623XXSP,2013-04-23 23:51:00,
2013-04-23 19:56:00,68.9,43.8,30.08,SSE,157,0.0,0.0,40,0.00,,,0.00,WUHU21623XXSP,2013-04-23 23:56:00,
2013-04-23 20:01:00,68.5,43.3,30.07,SSE,157,0.0,0.0,40,0.00,,,0.00,WUHU21623XXSP,2013-04-24 00:01:00,
2013-04-23 20:06:00,68.2,43.6,30.07,SSE,157,0.0,0.0,41,0.00,,,0.00,WUHU21623XXSP,2013-04-24 00:06:00,
2013-04-23 20:11:00,67.6,43.1,30.08,SSE,157,0.0,0.0,41,0.00,,,0.00,WUHU21623XXSP,2013-04-24 00:11:00,
2013-04-23 20:16:00,67.3,43.3,30.08,SSE,157,0.0,0.0,42,0.00,,,0.00,WUHU21623XXSP,2013-04-24 00:16:00,
2013-04-23 20:21:00,66.9,43.0,30.08,SSE,157,0.0,0.0,42,0.00,,,0.00,WUHU21623XXSP,2013-04-24 00:21:00,
2013-04-23 20:26:00,66.4,43.1,30.08,SSE,157,0.0,0.0,43,0.00,,,0.00,WUHU21623XXSP,2013-04-24 00:26:00,
2013-04-23 20:31:00,66.0,42.8,30.08,SSE,157,0.0,0.0,43,0.00,,,0.00,WUHU21623XXSP,2013-04-24 00:31:00,
2013-04-23 20:36:00,65.8,42.6,30.09,SSE,157,0.0,0.0,43,0.00,,,0.00,WUHU21623XXSP,2013-04-24 00:36:00,
2013-04-23 20:41:00,65.3,42.1,30.09,SSE,157,0.0,0.0,43,0.00,,,0.00,WUHU21623XXSP,2013-04-24 00:41:00,
2013-04-23 20:46:00,65.1,42.5,30.09,SSE,157,0.0,0.0,44,0.00,,,0.00,WUHU21623XXSP,2013-04-24 00:46:00,
2013-04-23 20:51:00,64.8,42.2,30.09,SSE,157,0.0,0.0,44,0.00,,,0.00,WUHU21623XXSP,2013-04-24 00:51:00,
2013-04-23 20:56:00,64.2,42.3,30.09,SSE,157,0.0,0.0,45,0.00,,,0.00,WUHU21623XXSP,2013-04-24 00:56:00,
2013-04-23 21:01:00,64.2,42.9,30.09,SSE,157,0.0,0.0,46,0.00,,,0.00,WUHU21623XXSP,2013-04-24 01:01:00,
2013-04-23 21:06:00,64.0,42.7,30.10,SSE,157,0.0,0.0,46,0.00,,,0.00,WUHU21623XXSP,2013-04-24 01:06:00,
2013-04-23 21:11:00,63.7,42.4,30.10,SSE,157,0.0,0.0,46,0.00,,,0.00,WUHU21623XXSP,2013-04-24 01:11:00,
2013-04-23 21:16:00,63.5,42.2,30.10,SSE,157,0.0,0.0,46,0.00,,,0.00,WUHU21623XXSP,2013-04-24 01:16:00,
2013-04-23 21:21:00,63.1,42.6,30.11,SSE,157,0.0,0.0,47,0.00,,,0.00,WUHU21623XXSP,2013-04-24 01:21:00,
2013-04-23 21:26:00,63.1,42.5,30.11,SSE,157,0.0,0.0,47,0.00,,,0.00,WUHU21623XXSP,2013-04-24 01:26:00,
2013-04-23 21:31:00,62.8,41.6,30.11,SSE,157,0.0,0.0,46,0.00,,,0.00,WUHU21623XXSP,2013-04-24 01:31:00,
2013-04-23 21:36:00,62.4,41.8,30.11,SSE,157,0.0,0.0,47,0.00,,,0.00,WUHU21623XXSP,2013-04-24 01:36:00,
2013-04-23 21:41:00,62.2,41.6,30.12,SSE,157,0.0,0.0,47,0.00,,,0.00,WUHU21623XXSP,2013-04-24 01:41:00,
2013-04-23 21:46:00,62.1,41.5,30.12,SSE,157,0.0,0.0,47,0.00,,,0.00,WUHU21623XXSP,2013-04-24 01:46:00,
2013-04-23 21:51:00,61.7,41.7,30.12,SSE,157,0.0,0.0,48,0.00,,,0.00,WUHU21623XXSP,2013-04-24 01:51:00,
2013-04-23 21:56:00,61.5,41.6,30.12,SSE,157,0.0,0.0,48,0.00,,,0.00,WUHU21623XXSP,2013-04-24 01:56:00,
2013-04-23 22:01:00,61.3,42.0,30.12,SSE,157,0.0,0.0,49,0.00,,,0.00,WUHU21623XXSP,2013-04-24 02:01:00,
2013-04-23 22:06:00,60.6,41.3,30.12,SSE,157,0.0,0.0,49,0.00,,,0.00,WUHU21623XXSP,2013-04-24 02:06:00,
2013-04-23 22:11:00,60.6,41.3,30.12,SSE,157,0.0,0.0,49,0.00,,,0.00,WUHU21623XXSP,2013-04-24 02:11:00,
2013-04-23 22:16:00,60.3,41.6,30.12,SSE,157,0.0,0.0,50,0.00,,,0.00,WUHU21623XXSP,2013-04-24 02:16:00,
2013-04-23 22:21:00,59.9,41.7,30.12,SSE,157,0.0,0.0,51,0.00,,,0.00,WUHU21623XXSP,2013-04-24 02:21:00,
2013-04-23 22:26:00,59.7,41.6,30.12,SSE,157,0.0,0.0,51,0.00,,,0.00,WUHU21623XXSP,2013-04-24 02:26:00,
2013-04-23 22:31:00,59.7,42.0,30.12,SSE,157,0.0,0.0,52,0.00,,,0.00,WUHU21623XXSP,2013-04-24 02:31:00,
2013-04-23 22:37:00,59.5,41.9,30.12,SSE,157,0.0,0.0,52,0.00,,,0.00,WUHU21623XXSP,2013-04-24 02:37:00,
2013-04-23 22:42:00,59.4,42.2,30.12,SSE,157,0.0,0.0,53,0.00,,,0.00,WUHU21623XXSP,2013-04-24 02:42:00,
2013-04-23 22:47:00,59.2,42.0,30.12,SSE,157,0.0,0.0,53,0.00,,,0.00,WUHU21623XXSP,2013-04-24 02:47:00,
2013-04-23 22:52:00,58.8,42.2,30.12,SSE,157,0.0,0.0,54,0.00,,,0.00,WUHU21623XXSP,2013-04-24 02:52:00,
2013-04-23 22:57:00,58.8,42.2,30.12,SSE,157,0.0,0.0,54,0.00,,,0.00,WUHU21623XXSP,2013-04-24 02:57:00,
2013-04-23 23:02:00,58.8,42.2,30.12,SSE,157,0.0,0.0,54,0.00,,,0.00,WUHU21623XXSP,2013-04-24 03:02:00,
2013-04-23 23:07:00,58.3,41.7,30.12,SSE,157,0.0,0.0,54,0.00,,,0.00,WUHU21623XXSP,2013-04-24 03:07:00,
2013-04-23 23:12:00,58.1,42.2,30.12,SSE,157,0.0,0.0,55,0.00,,,0.00,WUHU21623XXSP,2013-04-24 03:12:00,
2013-04-23 23:17:00,57.7,41.8,30.12,SSE,157,0.0,0.0,55,0.00,,,0.00,WUHU21623XXSP,2013-04-24 03:17:00,
2013-04-23 23:22:00,57.6,41.5,30.12,SSE,157,0.0,0.0,55,0.00,,,0.00,WUHU21623XXSP,2013-04-24 03:22:00,
2013-04-23 23:27:00,57.2,41.3,30.12,SSE,157,0.0,0.0,55,0.00,,,0.00,WUHU21623XXSP,2013-04-24 03:27:00,
2013-04-23 23:33:00,57.0,41.5,30.12,SSE,157,0.0,0.0,56,0.00,,,0.00,WUHU21623XXSP,2013-04-24 03:33:00,
2013-04-23 23:38:00,57.0,41.5,30.12,SSE,157,0.0,0.0,56,0.00,,,0.00,WUHU21623XXSP,2013-04-24 03:38:00,
2013-04-23 23:43:00,56.8,41.8,30.12,SSE,157,0.0,0.0,57,0.00,,,0.00,WUHU21623XXSP,2013-04-24 03:43:00,
2013-04-23 23:48:00,56.8,41.8,30.12,SSE,157,0.0,0.0,57,0.00,,,0.00,WUHU21623XXSP,2013-04-24 03:48:00,
2013-04-23 23:53:00,56.7,41.6,30.12,SSE,157,0.0,0.0,57,0.00,,,0.00,WUHU21623XXSP,2013-04-24 03:53:00,
2013-04-23 23:58:00,56.5,41.9,30.12,SSE,157,0.0,0.0,58,0.00,,,0.00,WUHU21623XXSP,2013-04-24 03:58:00,